TimeCDT,TemperatureF,Dew PointF,Humidity,Sea Level PressureIn,VisibilityMPH,Wind Direction,Wind SpeedMPH,Gust SpeedMPH,PrecipitationIn,Events,Conditions,WindDirDegrees,DateUTC
12:51 AM,81.0,75.0,82,29.89,10.0,SE,8.1,-,N/A,,Partly Cloudy,140,2013-10-02 05:51:00
1:51 AM,80.1,73.9,81,29.89,10.0,SSE,6.9,-,N/A,,Partly Cloudy,150,2013-10-02 06:51:00
2:51 AM,79.0,73.9,84,29.88,10.0,SE,5.8,-,N/A,,Partly Cloudy,140,2013-10-02 07:51:00
3:51 AM,79.0,73.9,84,29.87,10.0,SSE,4.6,-,N/A,,Scattered Clouds,150,2013-10-02 08:51:00
4:51 AM,79.0,73.9,84,29.87,10.0,SSE,3.5,-,N/A,,Mostly Cloudy,160,2013-10-02 09:51:00
5:10 AM,78.8,73.4,83,29.88,10.0,Calm,Calm,-,N/A,,Scattered Clouds,0,2013-10-02 10:10:00
5:51 AM,79.0,73.9,84,29.88,10.0,Calm,Calm,-,N/A,,Partly Cloudy,0,2013-10-02 10:51:00
6:51 AM,78.1,73.0,84,29.89,10.0,SSE,3.5,-,N/A,,Partly Cloudy,160,2013-10-02 11:51:00
7:51 AM,78.3,73.9,87,29.90,10.0,ESE,4.6,-,N/A,,Partly Cloudy,120,2013-10-02 12:51:00
8:51 AM,81.0,75.2,83,29.91,10.0,Calm,Calm,-,N/A,,Scattered Clouds,0,2013-10-02 13:51:00
9:51 AM,84.9,73.9,69,29.92,10.0,SSW,11.5,-,N/A,,Scattered Clouds,210,2013-10-02 14:51:00
10:51 AM,89.1,72.0,57,29.93,10.0,South,10.4,-,N/A,,Scattered Clouds,170,2013-10-02 15:51:00
11:51 AM,91.0,71.1,52,29.92,10.0,South,9.2,-,N/A,,Scattered Clouds,170,2013-10-02 16:51:00
12:51 PM,90.0,73.0,57,29.91,10.0,ESE,5.8,-,N/A,,Scattered Clouds,120,2013-10-02 17:51:00
1:51 PM,88.0,73.9,63,29.88,10.0,SE,10.4,-,N/A,,Scattered Clouds,130,2013-10-02 18:51:00
2:51 PM,89.1,73.9,61,29.86,10.0,SE,11.5,-,0.02,,Mostly Cloudy,140,2013-10-02 19:51:00
3:51 PM,91.0,72.0,53,29.85,10.0,ESE,13.8,-,N/A,,Scattered Clouds,120,2013-10-02 20:51:00
4:51 PM,90.0,73.0,57,29.85,10.0,SE,15.0,-,N/A,,Scattered Clouds,130,2013-10-02 21:51:00
5:51 PM,88.0,73.9,63,29.84,10.0,ESE,18.4,-,N/A,,Partly Cloudy,120,2013-10-02 22:51:00
6:51 PM,84.9,73.9,69,29.84,10.0,SE,18.4,-,N/A,,Partly Cloudy,140,2013-10-02 23:51:00
7:51 PM,82.9,75.0,77,29.86,10.0,SE,10.4,-,N/A,,Partly Cloudy,140,2013-10-03 00:51:00
8:51 PM,82.0,75.0,79,29.88,10.0,SE,10.4,-,N/A,,Partly Cloudy,140,2013-10-03 01:51:00
9:51 PM,81.0,75.0,82,29.90,10.0,SSE,9.2,-,N/A,,Partly Cloudy,150,2013-10-03 02:51:00
10:51 PM,80.1,75.0,85,29.91,10.0,SSE,5.8,-,N/A,,Partly Cloudy,150,2013-10-03 03:51:00
11:51 PM,80.1,75.0,85,29.91,10.0,SE,6.9,-,N/A,,Partly Cloudy,140,2013-10-03 04:51:00